ARIANE 2 DEB, 42489

Orbit data source: Space-Track

ARIANE 2 DEB, 42489 is space debris in HEO originally from a launch on Fri, 27 Jan 1989 UTC launched from the French Guiana (FRGUI). Debris objects in space refer to the collection of defunct objects orbiting the Earth. Examples of debris include non-operational satellites, rocket bodies, and fragments generated from explosions, collisions, or faulty payload assembly.

Loading next visibility...
Identifier
42489, 1989-006CR
Orbit
HEO
Country
Flag of FRFR
Related business
Manufacturer
EADS/LV
Mission
Spacecraft
Bus & Motor
Unknown
Mass
Unknown
Launch date (UTC)
1989-01-27 (37 years ago)
Launch vehicle
Unknown
Launch site
French Guiana (FRGUI)
Object type
Payload
Rocket body
Debris
Shape & HBR
Unknown
Radar Cross Section
Medium (>0.1 m² and <1 m²)

Expand to show TLE details & history
Last TLE update: 1 year ago

TLE from 1 year ago
0 ARIANE 2 DEB
1 42489U 89006CR  24228.46125038 -.00000097  00000-0  00000+0 0  9993
2 42489   9.8006  51.3859 6820659 144.5476  85.0904  2.19970790170952
Epoch: 2024-08-15T11:04Z
TLE epoch observation values (Epoch: 2024-08-15T11:04:12.032Z)
Latitude
-8.82075°
Longitude
-142.80157°
Altitude
26,925.253 km
Speed
2.824 km/s
True Right ascension
23h 10m 23s
True Declination
-8° 48' 35"
Sunlit
Object was in daylight at epoch
Visualization orbit readout
Latitude
Unknown
Longitude
Unknown
Altitude
Unknown
Speed
Unknown
Apparent Right ascension
Unknown
Apparent Declination
Unknown
Sunlit
N/A
Visualization observer readout
Local Sidereal Time
02:05:14
Azimuth
Unknown
Elevation
Unknown
Doppler factor
Unknown
Orbital elements
Apogee altitude
35,637.419 km
Perigee altitude
1,563.394 km
Semi-major axis
24,978.543 km
Eccentricity
0.68207
Inclination
9.8006°
RAAN
51.3859°
Arg. of periapsis
144.5476°
True anomaly
151.38284°
Mean anomaly
85.0904°
Eccentric anomaly
119.20282°
Mean motion
0.54978 °/min
Orbital period
654.8 mins
BSTAR
0
Loading maneuver chart data...
Computing Atmospheric mass density...
Loading historical data...
Loading historical data...
Loading historical data...
Loading historical data...
Loading historical data...
Loading historical data...
Loading historical data...

Documentation

Showing up to 5 results
|